Weather Roundup
Issued by NWS Chicago, IL

Home | Current Version | Previous Version | Text Only | Print | Product List | Glossary Off
Versions: 1 2 3 4 5 6 7 8 9 10 11 12 13 14 15 16 17 18 19 20 21 22 23 24 25 26 27 28 29 30 31 32 33 34 35 36 37 38 39 40 41 42 43 44 45 46 47 48 49 50

000
NZUS59 KLOT 051221
HRRLOT

CHICAGO AREA WEATHER ROUNDUP
NATIONAL WEATHER SERVICE CHICAGO/ROMEOVILLE IL
700 AM CDT TUE MAY 05 2015

NOTE: "FAIR" INDICATES FEW OR NO CLOUDS BELOW 12,000 FEET WITH NO
SIGNIFICANT WEATHER AND/OR OBSTRUCTIONS TO VISIBILITY.

* THESE STATIONS ARE NOT UNDER NWS QUALITY CONTROL. THEY ALSO MAY NOT
  REPORT WEATHER SUCH AS PRECIPITATION OR FOG.

ILZ005-006-012>014-019>023-051300-
NORTHEAST ILLINOIS

CITY           SKY/WX    TMP DP  RH WIND       PRES   REMARKS
OHARE          LGT RAIN  50  49  96 E13       30.17F
6HR MIN TEMP:  49; 6HR MAX TEMP:  56; 6HR PCP:  0.93;

MIDWAY         LGT RAIN  53  50  89 N9        30.21R FOG
6HR MIN TEMP:  52; 6HR MAX TEMP:  60; 6HR PCP:  0.78;

AURORA         CLOUDY    54  50  86 E14       30.16F
6HR MIN TEMP:  51; 6HR MAX TEMP:  54; 6HR PCP:  0.66;

LANSING*       LGT RAIN  50  48  92 NE5       30.22R
JOLIET*        LGT RAIN  55  54  97 NE7       30.16F
WAUKEGAN       LGT RAIN  46  45  96 NE12      30.23S FOG
6HR MIN TEMP:  45; 6HR MAX TEMP:  52; 6HR PCP:  0.43;

DUPAGE AIRPORT LGT RAIN  53  51  93 E17       30.15F
6HR MIN TEMP:  50; 6HR MAX TEMP:  53; 6HR PCP:  0.65;

WHEELING       LGT RAIN  49  48  97 N8        30.23F FOG
6HR MIN TEMP:  48; 6HR MAX TEMP:  55; 6HR PCP:  0.95;

KANKAKEE*      CLOUDY    59  58  97 NE9       30.19F FOG
MORRIS*        CLOUDY    54  53  96 E9        30.14F FOG
LEWIS AIRPORT* DRIZZLE   53  52  99 E13       30.17F
NORTHERLY IS     N/A     50  48  93 N9          N/A
$$

WIZ051-052-058>065-066-070>072-051300-
SOUTHEAST WISCONSIN

CITY           SKY/WX    TMP DP  RH WIND       PRES   REMARKS
MILWAUKEE      LGT RAIN  44  39  82 NE9       30.27R FOG
6HR MIN TEMP:  44; 6HR MAX TEMP:  53; 6HR PCP:  0.11;

KENOSHA*       LGT RAIN  47  44  90 E14       30.24R
RACINE*        LGT RAIN  45  41  86 NE6       30.27R
BURLINGTON     LGT RAIN  46  45  94 E3        30.25R
WAUKESHA       CLOUDY    46  39  76 E7        30.27R
WEST BEND      RAIN      45  41  87 E5        30.27R
$$

INZ001>003-010>013-019-020-051300-
NORTHWEST INDIANA

CITY           SKY/WX    TMP DP  RH WIND       PRES   REMARKS
GARY*          LGT RAIN  52 N/A N/A N5        30.22S
MICHIGAN CITY* NOT AVBL
RENSSELAER*    NOT AVBL
VALPARAISO     LGT RAIN  59  59 100 CALM      30.21R FOG
$$

LMZ740>746-051300-
SOUTHERN LAKE MICHIGAN

STATION/POSITION TIME  SKY/WX   TEMP WIND        PRES    VSBY
                                AIR  DIR/SP/G
                 (UTC)          (F)  (DEG/KT/KT) (MB)    (MI)
HARRISON CRIB    1200            46  340/ 16/ 20   N/A
BURNHAM HARBOR   1200            50  340/  8/ 13   N/A
CALUMET HARBOR   1200            47  340/ 10/ 12   N/A
BURNS HARBOR     1100            46  330/ 11/ 12 1023.4
MICHIGAN CITY    1200            49   50/  7/  7   N/A
$$

ABBREVIATIONS USED IN REMARKS
   TC - TEMPERATURE IN CELSIUS
  WCI - WIND CHILL INDEX
   HX - HEAT INDEX
  VSB - VISIBILITY
$$



USA.gov is the U.S. government's official web portal to all federal, state and local government web resources and services.